Weather History for Prestonsburg, KY

Change the Weather History Date:

Wednesday, January 2, 2013

  Actual Average (KJKL) Record (KJKL)
Temperature  
Mean Temperature 30 °F 35 °F  
Max Temperature 33 °F 43 °F 70 °F (2000)
Min Temperature 27 °F 27 °F 11 °F (2008)
Degree Days  
Heating Degree Days 35 30  
Month to date heating degree days 60  
Since 1 July heating degree days 1694  
Cooling Degree Days 0 0  
Month to date cooling degree days 0  
Year to date cooling degree days 0  
Moisture  
Dew Point 24 °F    
Average Humidity 79    
Maximum Humidity 100    
Minimum Humidity 60    
Precipitation  
Precipitation 0.00 in 0.11 in 1.54 in (2004)
Month to date precipitation 0.23  
Year to date precipitation 0.23  
Snow  
Snow 0.00 in 0.20 in - ()
Month to date snowfall 0.4  
Since 1 July snowfall 5.9  
Snow Depth -    
Sea Level Pressure  
Sea Level Pressure 30.15 in    
Wind  
Wind Speed 3 mph (NNE)    
Max Wind Speed 9 mph    
Max Gust Speed -    
Visibility 9 miles    
Events Snow    
T = Trace of Precipitation, MM = Missing Value Source: NWS Daily Summary

Daily Weather History Graph

Daily Weather History Graph

Search for Another Location

Airport:

Trip Planner

Search our weather history database for the weather conditions in past years. The results will help you decide how hot, cold, wet, or windy it might be!

Date:

Astronomy

Jan. 02, 2013 Rise Set
Actual Time 7:46 AM EST 5:23 PM EST
Civil Twilight 7:16 AM EST 5:52 PM EST
Nautical Twilight 6:44 AM EST 6:25 PM EST
Astronomical Twilight 6:12 AM EST 6:57 PM EST
Moon 10:48 PM EST (1/2) 10:33 AM EST (1/2)
Length of Visible Light 10h 35m
Length of Day
9h 37m
Waning Gibbous, 75% of the Moon is Illuminated
Jan 2
Waning Gibbous
Jan 4
Last Quarter
Jan 11
New
Jan 18
First Quarter
Jan 26
Full

Hourly Weather History & Observations

Time (EST) Temp. Windchill Dew Point Humidity Pressure Visibility Wind Dir Wind Speed Gust Speed Precip Events Conditions
12:15 AM 32.9 °F 29.8 °F 32.4 °F 98% 30.07 in 4.0 mi North 3.5 mph - N/A   Overcast
12:35 AM 32.2 °F 25.8 °F 32.0 °F 99% 30.07 in 0.8 mi North 6.9 mph - N/A   Overcast
12:55 AM 32.0 °F 25.6 °F 32.0 °F 100% 30.06 in 0.8 mi NNE 6.9 mph - N/A   Overcast
1:15 AM 31.8 °F 27.3 °F 31.8 °F 100% 30.06 in 2.0 mi North 4.6 mph - N/A Snow Light Snow
1:35 AM 31.3 °F 27.9 °F 31.3 °F 100% 30.06 in 4.0 mi North 3.5 mph - N/A Snow Light Snow
1:55 AM 31.1 °F 27.7 °F 31.1 °F 100% 30.06 in 4.0 mi North 3.5 mph - N/A   Overcast
2:15 AM 30.7 °F 24.9 °F 30.2 °F 98% 30.07 in 5.0 mi NNE 5.8 mph - N/A   Overcast
2:35 AM 30.7 °F 26.0 °F 29.8 °F 96% 30.07 in 5.0 mi North 4.6 mph - N/A   Overcast
2:55 AM 30.6 °F 25.8 °F 29.3 °F 95% 30.08 in 5.0 mi North 4.6 mph - N/A   Overcast
3:15 AM 30.2 °F 24.3 °F 29.3 °F 96% 30.08 in 5.0 mi North 5.8 mph - N/A   Overcast
3:35 AM 30.0 °F 21.7 °F 29.1 °F 96% 30.08 in 5.0 mi NNE 9.2 mph - N/A   Overcast
4:15 AM 29.3 °F 23.2 °F 27.1 °F 92% 30.08 in 7.0 mi NNE 5.8 mph - N/A   Overcast
4:35 AM 29.1 °F 24.1 °F 26.8 °F 91% 30.10 in 10.0 mi North 4.6 mph - N/A   Overcast
4:55 AM 29.1 °F 22.1 °F 26.6 °F 90% 30.10 in 10.0 mi North 6.9 mph - N/A   Overcast
5:15 AM 28.4 °F 23.3 °F 25.0 °F 87% 30.10 in 10.0 mi NNE 4.6 mph - N/A   Overcast
5:35 AM 28.4 °F 24.6 °F 25.3 °F 88% 30.11 in 10.0 mi North 3.5 mph - N/A   Overcast
5:55 AM 28.2 °F 22.0 °F 24.6 °F 86% 30.12 in 10.0 mi North 5.8 mph - N/A   Overcast
6:15 AM 28.2 °F 22.0 °F 24.6 °F 86% 30.12 in 10.0 mi North 5.8 mph - N/A   Overcast
6:35 AM 28.0 °F 20.8 °F 24.1 °F 85% 30.12 in 10.0 mi North 6.9 mph - N/A   Overcast
7:15 AM 27.5 °F 23.6 °F 23.9 °F 86% 30.15 in 10.0 mi North 3.5 mph - N/A   Overcast
7:35 AM 27.5 °F 22.2 °F 23.9 °F 86% 30.15 in 10.0 mi North 4.6 mph - N/A   Overcast
7:55 AM 27.5 °F 23.6 °F 23.7 °F 86% 30.16 in 10.0 mi North 3.5 mph - N/A   Overcast
8:15 AM 27.5 °F 22.2 °F 23.9 °F 86% 30.16 in 10.0 mi North 4.6 mph - N/A   Overcast
8:35 AM 27.5 °F 23.6 °F 23.7 °F 86% 30.16 in 10.0 mi North 3.5 mph - N/A   Overcast
8:55 AM 28.0 °F 24.2 °F 24.3 °F 86% 30.17 in 10.0 mi NNE 3.5 mph - N/A   Overcast
9:15 AM 27.5 °F 23.6 °F 23.7 °F 86% 30.17 in 10.0 mi NNE 3.5 mph - N/A   Overcast
9:35 AM 28.2 °F 24.4 °F 23.9 °F 84% 30.17 in 10.0 mi North 3.5 mph - N/A   Mostly Cloudy
9:55 AM 28.2 °F - 23.4 °F 82% 30.17 in 10.0 mi Calm Calm - N/A   Scattered Clouds
10:15 AM 29.8 °F 26.3 °F 24.6 °F 81% 30.19 in 10.0 mi NNW 3.5 mph - N/A   Mostly Cloudy
10:35 AM 30.2 °F - 25.0 °F 81% 30.19 in 10.0 mi Calm Calm - N/A   Overcast
10:55 AM 29.3 °F - 22.6 °F 76% 30.19 in 10.0 mi Calm Calm - N/A   Mostly Cloudy
11:15 AM 30.7 °F - 24.4 °F 77% 30.19 in 10.0 mi Calm Calm - N/A   Overcast
11:35 AM 29.8 °F - 23.9 °F 79% 30.18 in 10.0 mi Calm Calm - N/A   Scattered Clouds
11:55 AM 31.8 °F 28.5 °F 23.4 °F 71% 30.18 in 10.0 mi NE 3.5 mph - N/A   Clear
12:15 PM 32.4 °F - 23.9 °F 71% 30.18 in 10.0 mi Calm Calm - N/A   Scattered Clouds
12:35 PM 31.5 °F 26.8 °F 22.8 °F 70% 30.17 in 10.0 mi NNE 4.6 mph - N/A   Scattered Clouds
12:55 PM 32.4 °F 29.1 °F 22.5 °F 67% 30.16 in 10.0 mi NNE 3.5 mph - N/A   Clear
1:15 PM 33.3 °F - 21.6 °F 62% 30.15 in 10.0 mi Calm Calm - N/A   Scattered Clouds
1:35 PM 32.9 °F - 21.2 °F 62% 30.16 in 10.0 mi Calm Calm - N/A   Clear
1:55 PM 32.4 °F - 21.0 °F 63% 30.15 in 10.0 mi Calm Calm - N/A   Scattered Clouds
2:15 PM 33.6 °F 28.4 °F 21.9 °F 62% 30.16 in 10.0 mi NE 5.8 mph - N/A   Scattered Clouds
2:35 PM 33.1 °F 30.0 °F 20.7 °F 60% 30.15 in 10.0 mi NNW 3.5 mph - N/A   Clear
2:55 PM 32.9 °F 29.8 °F 20.3 °F 60% 30.14 in 10.0 mi NW 3.5 mph - N/A   Clear
3:15 PM 33.3 °F - 21.4 °F 62% 30.15 in 10.0 mi Calm Calm - N/A   Clear
3:35 PM 33.3 °F - 20.7 °F 60% 30.15 in 10.0 mi Calm Calm - N/A   Clear
3:55 PM 33.3 °F - 21.7 °F 63% 30.16 in 10.0 mi Calm Calm - N/A   Clear
4:15 PM 32.9 °F - 20.3 °F 60% 30.16 in 10.0 mi Calm Calm - N/A   Clear
4:35 PM 32.9 °F - 20.7 °F 61% 30.15 in 10.0 mi Calm Calm - N/A   Clear
4:55 PM 32.5 °F - 20.3 °F 61% 30.15 in 10.0 mi Calm Calm - N/A   Clear
5:15 PM 32.4 °F - 19.8 °F 60% 30.15 in 10.0 mi Calm Calm - N/A   Clear
5:35 PM 31.8 °F - 20.8 °F 64% 30.15 in 10.0 mi Calm Calm - N/A   Clear
5:55 PM 31.8 °F - 21.0 °F 64% 30.15 in 10.0 mi Calm Calm - N/A   Clear
6:15 PM 31.1 °F - 21.2 °F 67% 30.16 in 10.0 mi Calm Calm - N/A   Clear
6:35 PM 30.2 °F - 23.0 °F 75% 30.16 in 10.0 mi Calm Calm - N/A   Clear
6:55 PM 30.0 °F - 21.9 °F 72% 30.17 in 10.0 mi Calm Calm - N/A   Clear
7:15 PM 30.2 °F - 21.9 °F 71% 30.18 in 10.0 mi Calm Calm - N/A   Clear
7:35 PM 30.6 °F - 21.2 °F 68% 30.19 in 10.0 mi Calm Calm - N/A   Clear
7:55 PM 30.7 °F - 21.0 °F 67% 30.19 in 10.0 mi Calm Calm - N/A   Clear
8:35 PM 29.3 °F - 23.4 °F 78% 30.19 in 10.0 mi Calm Calm - N/A   Clear
8:55 PM 29.7 °F - 22.5 °F 75% 30.19 in 10.0 mi Calm Calm - N/A   Clear
9:15 PM 29.3 °F - 23.7 °F 80% 30.19 in 10.0 mi Calm Calm - N/A   Clear
9:35 PM 29.7 °F - 21.0 °F 70% 30.19 in 10.0 mi Calm Calm - N/A   Clear
9:55 PM 29.1 °F - 21.9 °F 74% 30.20 in 10.0 mi Calm Calm - N/A   Clear
10:15 PM 29.3 °F - 22.3 °F 75% 30.20 in 10.0 mi Calm Calm - N/A   Clear
10:35 PM 28.6 °F - 23.0 °F 80% 30.19 in 10.0 mi Calm Calm - N/A   Clear
10:55 PM 28.8 °F 25.0 °F 24.8 °F 85% 30.19 in 10.0 mi ESE 3.5 mph - N/A   Clear
11:15 PM 28.4 °F - 24.8 °F 86% 30.20 in 10.0 mi Calm Calm - N/A   Clear
11:35 PM 28.8 °F 25.0 °F 23.7 °F 81% 30.19 in 10.0 mi ESE 3.5 mph - N/A   Clear
11:55 PM 28.0 °F - 24.6 °F 87% 30.19 in 10.0 mi Calm Calm - N/A   Clear